Location: Unspecified
(41.5516°N, 88.1098°W)
Time: 14:45:05
(UTC-05:00)

Cosmos 2058 - Visible Passes

Search period start: 28 July 2015 00:00
Search period end: 07 August 2015 00:00
Orbit: 565 x 590 km, 82.5° (Epoch: 27 July)

Date Brightness Start Highest point End Pass type
(mag) Time Alt. Az. Time Alt. Az. Time Alt. Az.
28 Jul 5.1 03:55:15 10° NNE 03:58:42 26° ENE 04:02:13 10° SE visible
29 Jul 4.5 03:59:17 10° N 04:03:05 35° ENE 04:06:53 10° SE visible
30 Jul 3.9 04:03:24 10° N 04:07:24 48° ENE 04:11:25 10° SSE visible
31 Jul 3.2 04:07:36 10° N 04:11:44 68° E 04:15:50 10° SSE visible
01 Aug 2.8 04:11:51 10° N 04:16:00 87° W 04:20:08 10° S visible
02 Aug 6.0 02:41:55 10° NE 02:42:43 11° ENE 02:43:46 10° E visible
02 Aug 2.9 04:16:11 10° NNW 04:20:16 62° W 04:23:41 14° S visible
03 Aug 5.7 02:44:57 10° NE 02:47:11 14° ENE 02:49:34 10° ESE visible
03 Aug 3.3 04:20:34 10° NNW 04:24:31 44° W 04:27:05 19° SSW visible
04 Aug 5.3 02:48:39 10° NNE 02:51:36 19° ENE 02:54:21 11° ESE visible
04 Aug 3.7 04:25:01 10° NNW 04:28:44 32° W 04:30:35 22° SW visible
05 Aug 4.9 02:52:33 10° NNE 02:56:00 25° ENE 02:57:55 19° ESE visible
05 Aug 4.1 04:29:35 10° NW 04:32:57 24° W 04:34:10 20° WSW visible
06 Aug 4.3 02:56:34 10° N 03:00:22 34° ENE 03:01:33 29° ESE visible
06 Aug 4.5 04:34:18 10° NW 04:37:09 18° W 04:37:47 17° W visible
